AirNav   Everest Fuels
 
 1091 users online  

98PN Trauma Center Heliport
Allentown, Pennsylvania, USA

GOING TO ALLENTOWN?


FAA INFORMATION EFFECTIVE 16 JULY 2020

Location

FAA Identifier: 98PN
Lat/Long: 40-33-40.3490N 075-31-24.6640W
40-33.672483N 075-31.411067W
40.5612081,-75.5235178
(estimated)
Elevation: 400 ft. / 122 m (estimated)
Variation: 11W (1985)
From city: 2 miles SW of ALLENTOWN, PA
Time zone: UTC -4 (UTC -5 during Standard Time)
Zip code: 18103

Heliport Operations

Heliport use: Private use. Permission required prior to landing
Activation date: 03/1983
Control tower: no
ARTCC: NEW YORK CENTER
FSS: WILLIAMSPORT FLIGHT SERVICE STATION
Attendance: CONTINUOUS
Wind indicator: lighted
Segmented circle: no
Beacon: white-green-yellow (heliport)
Operates sunset to sunrise.

Heliport Communications

WX AWOS-3 at XLL (1.7 nm E): 127.875 (610-231-3111)
WX ASOS at ABE (7 nm NE): 126.975 (610-266-3579)
WX AWOS-3 at UKT (10 nm SE): 119.475 (215-538-7610)
WX AWOS-3 at CKZ (15 nm SE): 126.325 (215-257-7291)
WX AWOS-3PT at 22N (18 nm NW): 119.350 (570-386-3423)
WX ASOS at PTW (19 nm S): 119.425 (610-495-0823)

Nearby radio navigation aids

VOR radial/distance  VOR name  Freq  Var
ETXr108/7.4EAST TEXAS VOR/DME110.2009W
FJCr208/10.4ALLENTOWN VORTAC117.5010W
PTWr014/20.4POTTSTOWN VORTAC116.5009W
ARDr313/33.7YARDLEY VOR/DME108.2010W
BWZr257/35.0BROADWAY VOR/DME114.2011W
SBJr278/35.7SOLBERG VOR/DME112.9010W
MXEr019/39.2MODENA VORTAC113.2009W
STWr240/39.6STILLWATER VOR/DME109.6011W

 
NDB name  Hdg/Dist  Freq  Var  ID
AMBLER349/28.327512WING .. -. --.

Heliport Services

Runway Information

Helipad H1

Dimensions: 60 x 60 ft. / 18 x 18 m
Surface: asphalt, in fair condition
Runway edge lights: PERI
Latitude: 40-33.672483N
Longitude: 075-31.411067W
Elevation: 400.0 ft.
Traffic pattern: leftleft
Markings: none, in fair condition

Heliport Ownership and Management from official FAA records

Ownership: Privately-owned
Owner: LEHIGH VALLEY HOSPITAL CENTER
1200 S. CEDAR CREST BLVD.
ALLENTOWN, PA 18105
Phone 610-402-8666
Manager: BRYAN EVANS
3950 OAKHURST DR
CENTER VALLEY, PA 18234
Phone 484-661-5629

Additional Remarks

100 FT POWER LINES 400 FT NORTH OF HELIPAD.
PLINES 265 FT SOUTHWEST OF HELI.
FOR CD CTC ALLENTOWN APCH AT 800-728-6322.

Instrument Procedures

There are no published instrument procedures at 98PN.

Some nearby airports with instrument procedures:

KXLL - Allentown Queen City Municipal Airport (2 nm E)
KABE - Lehigh Valley International Airport (7 nm NE)
KUKT - Quakertown Airport (10 nm SE)
KCKZ - Pennridge Airport (15 nm SE)
N43 - Braden Airpark (17 nm NE)
22N - Jake Arner Memorial Airport (18 nm NW)
N47 - Pottstown Municipal Airport (19 nm S)
KPTW - Heritage Field Airport (19 nm S)
 
Loc | Ops | Rwys | IFR | FBO | Links
Com | Nav | Svcs | Stats | Notes
Area around 98PN (Trauma Center Heliport)
 
Road maps at: MapQuest Bing Google
 
Aerial photo
No photo
 
Sectional chart

 
Airport distance calculator
Flying to Trauma Center Heliport? Find the distance to fly.

From to 98PN

Sunrise and sunset
Times for 04-Aug-2020
 Local
(UTC-4)
 Zulu
(UTC)
Morning civil twilight05:3409:34
Sunrise06:0410:04
Sunset20:1200:12
Evening civil twilight20:4200:42

Current date and time
Zulu (UTC)  05-Aug-2020 00:11:47
Local (UTC-4)  04-Aug-2020 20:11:47
 
METAR
KXLL 
2nm E 
042355Z AUTO 20005KT 10SM CLR 25/21 A2986 RMK AO2
KABE 
6nm NE 
042351Z 20006KT 10SM FEW050 26/19 A2984 RMK AO2 SLP103 60041 T02560194 10261 20206 51028 $
KUKT 
10nm SE 
042355Z AUTO VRB03KT 10SM BKN045 BKN050 BKN065 25/21 A2987 RMK A01
KCKZ 
15nm SE 
042355Z AUTO 19003KT 10SM FEW043 BKN050 BKN070 24/22 A2988 RMK AO2
K22N 
18nm NW 
042355Z AUTO 00000KT 10SM SCT045 BKN055 OVC065 22/22 A2985 RMK AO2
KPTW 
20nm S 
042354Z AUTO 18004KT 10SM BKN060 25/21 A2988 RMK AO2 SLP112 6//// T02500206 53020 $
TAF
KABE 
6nm NE 
042214Z 0422/0518 26010KT P6SM VCSH BKN050 FM050200 25006KT P6SM SCT200 FM050600 VRB02KT 5SM BR SCT200 FM051100 32005KT P6SM SCT030
NOTAMs
Click for the latest NOTAMs
NOTAMs are issued by the DoD/FAA and will open in a separate window not controlled by AirNav.

 

 
 

Would you like to see your business listed on this page?

 If your business provides an interesting product or service to pilots, flight crews, aircraft, or users of the Trauma Center Heliport, you should consider listing it here.  To start the listing process, click on the button below
 
Add a business
 

Other Pages about Trauma Center Heliport

Update a link
 
Copyright © AirNav, LLC. All rights reserved. Privacy Policy  Contact